Port Isabel, TX

12:24 PM CST on November 20, 2017 (GMT -0600)
Port Isabel-Cameron County

Weather History for KPIL - November, 2011

Change the Weather History Date:

Thursday, November 10, 2011

  Actual Average (KBRO) Record (KBRO)
Temperature  
Mean Temperature 56 °F -  
Max Temperature 66 °F 77 °F 90 °F (1946)
Min Temperature 46 °F 59 °F 40 °F (1955)
Degree Days  
Heating Degree Days 9    
Growing Degree Days 6 (Base 50)    
Moisture  
Dew Point 43 °F    
Average Humidity 62    
Maximum Humidity 86    
Minimum Humidity 36    
Precipitation  
Precipitation 0.10 in - - ()
Sea Level Pressure  
Sea Level Pressure 30.37 in    
Wind  
Wind Speed 13 mph (NNW)    
Max Wind Speed 24 mph    
Max Gust Speed 34 mph    
Visibility 10 miles    
Events Rain    
Averages and records for this station are not official NWS values.
T = Trace of Precipitation, MM = Missing Value Source: NWS Daily Summary

Daily Weather History Graph

Daily Weather History Graph

Search for Another Location

Airport or City:

Trip Planner

Search our weather history database for the weather conditions in past years. The results will help you decide how hot, cold, wet, or windy it might be!

Date:

Astronomy

Nov. 10, 2011 Rise Set
Actual Time 6:44 AM CST 5:42 PM CST
Civil Twilight 6:20 AM CST 6:06 PM CST
Nautical Twilight 5:52 AM CST 6:33 PM CST
Astronomical Twilight 5:25 AM CST 7:01 PM CST
Moon 5:36 PM CST (11/10) 6:33 AM CST (11/10)
Length of Visible Light 11h 46m
Length of Day
10h 57m
Full, 100% of the Moon is Illuminated
Nov 10
Full
Nov 10
Full
Nov 18
Last Quarter
Nov 25
New
Dec 2
First Quarter

Hourly Weather History & Observations

Time (CST) Temp. Dew Point Humidity Pressure Visibility Wind Dir Wind Speed Gust Speed Precip Events Conditions
12:53 AM 57.0 °F 48.0 °F 72% 30.34 in 10.0 mi NW 11.5 mph - 0.01 in Rain Light Rain
1:53 AM 55.0 °F 48.9 °F 80% 30.34 in 8.0 mi NNW 8.1 mph - 0.04 in Rain Light Rain
2:53 AM 55.0 °F 48.0 °F 77% 30.33 in 10.0 mi NW 15.0 mph - 0.00 in   Overcast
3:53 AM 55.0 °F 46.9 °F 74% 30.35 in 10.0 mi NNW 16.1 mph - 0.00 in Rain Light Rain
4:53 AM 53.1 °F 48.9 °F 86% 30.35 in 7.0 mi NNW 11.5 mph - 0.05 in Rain Rain
7:53 AM 54.0 °F 46.9 °F 77% 30.41 in 10.0 mi NW 17.3 mph - N/A   Clear
8:53 AM 55.9 °F 43.0 °F 62% 30.44 in 10.0 mi NNW 19.6 mph 26.5 mph N/A   Clear
9:53 AM 61.0 °F 43.0 °F 52% 30.44 in 10.0 mi NNW 19.6 mph 27.6 mph N/A   Clear
10:53 AM 62.1 °F 45.0 °F 53% 30.43 in 10.0 mi North 23.0 mph 29.9 mph N/A   Clear
11:53 AM 66.0 °F 43.0 °F 43% 30.41 in 10.0 mi North 24.2 mph 34.5 mph N/A   Clear
12:53 PM 66.9 °F 42.1 °F 40% 30.40 in 10.0 mi North 20.7 mph 33.4 mph N/A   Clear
1:53 PM 66.9 °F 41.0 °F 39% 30.37 in 10.0 mi NNE 18.4 mph 29.9 mph N/A   Clear
2:53 PM 66.9 °F 39.9 °F 37% 30.36 in 10.0 mi North 17.3 mph 25.3 mph N/A   Clear
3:53 PM 66.0 °F 37.9 °F 36% 30.35 in 10.0 mi North 15.0 mph 21.9 mph N/A   Clear
4:53 PM 64.0 °F 37.9 °F 38% 30.34 in 10.0 mi NNE 12.7 mph - N/A   Clear
5:53 PM 59.0 °F 39.9 °F 49% 30.35 in 10.0 mi NNE 5.8 mph - N/A   Clear
6:53 PM 55.9 °F 41.0 °F 57% 30.35 in 10.0 mi NNE 6.9 mph - N/A   Clear
7:53 PM 55.0 °F 43.0 °F 64% 30.37 in 10.0 mi NNE 5.8 mph - N/A   Clear
8:53 PM 50.0 °F 42.1 °F 74% 30.37 in 10.0 mi Calm Calm - N/A   Clear
9:53 PM 46.9 °F 42.1 °F 83% 30.38 in 10.0 mi Calm Calm - N/A   Clear
10:53 PM 46.9 °F 42.1 °F 83% 30.37 in 10.0 mi WNW 3.5 mph - N/A   Clear
11:53 PM 46.0 °F 42.1 °F 86% 30.35 in 10.0 mi Calm Calm - N/A   Clear